Regional Weather Roundup
Issued by NWS

Home | Current Version | Previous Version | Graphics & Text | Print | Product List | Glossary On
Versions: 1 2 3 4 5 6 7 8 9 10 11 12 13 14 15 16 17 18 19 20 21 22 23 24 25 26 27 28 29 30 31 32 33 34 35 36 37 38 39 40 41 42 43 44 45 46 47 48 49 50
000
ASUS43 KBIS 010810
RWRND

NORTH DAKOTA REGIONAL WEATHER ROUNDUP
NATIONAL WEATHER SERVICE BISMARCK ND
300 AM CDT WED JUL 01 2015

NOTE: "FAIR" INDICATES FEW OR NO CLOUDS BELOW 12,000 FEET WITH NO
SIGNIFICANT WEATHER AND/OR OBSTRUCTIONS TO VISIBILITY.


NDZ001>003-009>011-017-010900-
NORTHWEST NORTH DAKOTA

CITY           SKY/WX    TMP DP  RH WIND       PRES   REMARKS
WILLISTON      PTCLDY    61  59  93 N7        29.94S FOG
MINOT          FOG       61  59  93 SW5       29.92R VSB 3/4
MINOT AFB      FOG       64  64 100 NW3       29.91S VSB 1/4
$$

NDZ018>021-031>035-040>046-010900-
SOUTHWEST NORTH DAKOTA

CITY           SKY/WX    TMP DP  RH WIND       PRES   REMARKS
BISMARCK       PTCLDY    63  61  93 SE6       29.90S
DICKINSON      CLOUDY    63  61  93 SE8       29.90S FOG
GARRISON         N/A     57  56  96 N5        29.92R
HETTINGER ARPT PTCLDY    60  58  92 NE7       29.91F FOG
$$

NDZ004>008-012>016-024-026-027-054-010900-
NORTHEAST NORTH DAKOTA

CITY           SKY/WX    TMP DP  RH WIND       PRES   REMARKS
GRAND FORKS    CLOUDY    62  58  86 E5        29.92S
GRND FRKS AFB  PTCLDY    57  55  94 CALM      29.93S FOG
DEVILS LAKE    MOCLDY    63  55  77 S5        29.92S
$$

NDZ022-023-025-028>030-036>039-047>053-010900-
SOUTHEAST NORTH DAKOTA

CITY           SKY/WX    TMP DP  RH WIND       PRES   REMARKS
FARGO          CLOUDY    65  60  84 CALM      29.91R
JAMESTOWN      LGT RAIN  64  62  93 E5        29.92R
$$




USA.gov is the U.S. government's official web portal to all federal, state and local government web resources and services.